Fort Campbell, TN

8:49 AM CST on February 10, 2016 (GMT -0600)
Outlaw

Weather History for KCKV - January, 2014

Change the Weather History Date:

Thursday, January 23, 2014

  Actual Average Record
Temperature  
Mean Temperature 14 °F 36 °F  
Max Temperature 19 °F 45 °F - ()
Min Temperature 7 °F 26 °F - ()
Degree Days  
Heating Degree Days 52 29  
Month to date heating degree days 672  
Since 1 July heating degree days 2237  
Cooling Degree Days 0 0  
Month to date cooling degree days 0  
Year to date cooling degree days 0  
Moisture  
Dew Point 3 °F    
Average Humidity 61    
Maximum Humidity 81    
Minimum Humidity 35    
Precipitation  
Precipitation 0.00 in 0.11 in - ()
Month to date precipitation 2.48  
Year to date precipitation 2.48  
Sea Level Pressure  
Sea Level Pressure 30.56 in    
Wind  
Wind Speed 9 mph (NNW)    
Max Wind Speed 21 mph    
Max Gust Speed 21 mph    
Visibility 10 miles    
Events      
T = Trace of Precipitation, MM = Missing Value Source: NWS Daily Summary

Daily Weather History Graph

Daily Weather History Graph

Search for Another Location

Airport or City:

Trip Planner

Search our weather history database for the weather conditions in past years. The results will help you decide how hot, cold, wet, or windy it might be!

Date:

Astronomy

Jan. 23, 2014 Rise Set
Actual Time 6:57 AM CST 5:05 PM CST
Civil Twilight 6:29 AM CST 5:33 PM CST
Nautical Twilight 5:58 AM CST 6:04 PM CST
Astronomical Twilight 5:27 AM CST 6:35 PM CST
Moon No Moon Rise 10:44 AM CST (1/23)
Length of Visible Light 11h 03m
Length of Day
10h 08m
Waning Gibbous, 55% of the Moon is Illuminated
Jan 23
Waning Gibbous
Jan 23
Last Quarter
Jan 30
New
Feb 6
First Quarter
Feb 14
Full

Hourly Weather History & Observations

Time (CST) Temp. Windchill Dew Point Humidity Pressure Visibility Wind Dir Wind Speed Gust Speed Precip Events Conditions
12:52 AM 17.1 °F - 12.0 °F 81% 30.24 in 10.0 mi Calm Calm - N/A   Partly Cloudy
1:52 AM 16.0 °F 10.4 °F 10.9 °F 81% 30.27 in 10.0 mi West 3.5 mph - N/A   Clear
2:52 AM 19.9 °F 8.6 °F 14.0 °F 78% 30.31 in 10.0 mi North 10.4 mph - N/A   Clear
3:22 AM 19.4 °F 7.9 °F 14.0 °F 80% 30.31 in 10.0 mi NNW 10.4 mph - N/A   Mostly Cloudy
3:30 AM 19.4 °F 10.4 °F 12.2 °F 74% 30.31 in 10.0 mi NW 6.9 mph - N/A   Scattered Clouds
3:52 AM 19.0 °F 8.2 °F 12.9 °F 77% 30.34 in 10.0 mi NNW 9.2 mph - N/A   Clear
4:52 AM 19.0 °F 6.1 °F 12.0 °F 74% 30.38 in 10.0 mi North 12.7 mph - N/A   Scattered Clouds
5:52 AM 16.0 °F -1.3 °F 6.1 °F 65% 30.43 in 10.0 mi NNW 20.7 mph - N/A   Clear
6:52 AM 12.9 °F -3.9 °F 3.9 °F 67% 30.48 in 10.0 mi North 17.3 mph - N/A   Clear
7:52 AM 10.9 °F -7.0 °F 1.9 °F 67% 30.54 in 10.0 mi North 18.4 mph - N/A   Partly Cloudy
8:52 AM 10.9 °F -7.5 °F 1.9 °F 67% 30.58 in 10.0 mi NNW 19.6 mph - N/A   Partly Cloudy
9:52 AM 12.9 °F -1.6 °F 1.0 °F 59% 30.63 in 10.0 mi NNW 12.7 mph - N/A   Clear
10:52 AM 14.0 °F 1.2 °F -0.9 °F 52% 30.65 in 10.0 mi North 10.4 mph 20.7 mph N/A   Clear
11:52 AM 16.0 °F 3.6 °F -4.0 °F 41% 30.64 in 10.0 mi North 10.4 mph - N/A   Clear
12:52 PM 18.0 °F 3.1 °F -6.0 °F 35% 30.62 in 10.0 mi NNW 16.1 mph - N/A   Clear
1:52 PM 18.0 °F 3.6 °F -6.0 °F 35% 30.62 in 10.0 mi NW 15.0 mph 20.7 mph N/A   Clear
2:52 PM 19.0 °F 7.5 °F -4.0 °F 36% 30.63 in 10.0 mi NW 10.4 mph - N/A   Clear
3:52 PM 18.0 °F 3.6 °F -4.0 °F 38% 30.65 in 10.0 mi North 15.0 mph 18.4 mph N/A   Clear
4:52 PM 16.0 °F 2.3 °F -2.9 °F 43% 30.66 in 10.0 mi NNW 12.7 mph - N/A   Clear
5:52 PM 14.0 °F -0.8 °F -0.9 °F 52% 30.69 in 10.0 mi North 13.8 mph - N/A   Clear
6:52 PM 12.0 °F -1.3 °F -0.9 °F 56% 30.72 in 10.0 mi North 10.4 mph - N/A   Clear
7:52 PM 10.9 °F -2.6 °F -0.9 °F 59% 30.73 in 10.0 mi North 10.4 mph - N/A   Clear
8:52 PM 9.0 °F -2.2 °F -0.9 °F 64% 30.75 in 10.0 mi NNW 6.9 mph - N/A   Clear
9:52 PM 9.0 °F -2.2 °F -0.9 °F 64% 30.76 in 10.0 mi NNW 6.9 mph - N/A   Clear
10:52 PM 8.1 °F -2.0 °F -2.0 °F 64% 30.76 in 10.0 mi NW 5.8 mph - N/A   Clear
11:52 PM 7.0 °F -1.7 °F -0.9 °F 70% 30.76 in 10.0 mi WNW 4.6 mph - N/A   Clear